Location: Kailua
(21.4020°N, 157.7390°W)
Time: 11:51:34
(UTC-10:00)

Cosmos 2297 Rocket - Visible Passes

Search period start: 28 April 2016 00:00
Search period end: 08 May 2016 00:00
Orbit: 838 x 845 km, 71.0° (Epoch: 27 April)

Date Brightness Start Highest point End Pass type
(mag) Time Alt. Az. Time Alt. Az. Time Alt. Az.
28 Apr 3.6 21:32:12 10° N 21:35:03 30° N 21:35:03 30° N visible
29 Apr 3.1 21:17:09 10° N 21:20:45 39° N 21:20:45 39° N visible
30 Apr 2.7 21:02:05 10° N 21:06:29 48° NNE 21:06:29 48° NNE visible
01 May 2.4 20:47:02 10° N 20:52:17 53° ENE 20:52:17 53° ENE visible
01 May 5.0 22:34:02 10° WNW 22:34:08 10° W 22:34:08 10° W visible
02 May 2.4 20:32:00 10° N 20:37:28 50° ENE 20:38:08 47° E visible
02 May 4.8 22:18:32 10° WNW 22:20:00 12° W 22:20:00 12° W visible
03 May 2.5 20:16:58 10° N 20:22:22 46° ENE 20:24:04 36° ESE visible
03 May 4.6 22:03:07 10° WNW 22:05:55 14° W 22:05:55 14° W visible
04 May 2.6 20:01:56 10° N 20:07:17 43° ENE 20:10:03 25° SE visible
04 May 4.5 21:47:45 10° WNW 21:50:51 15° W 21:51:55 14° WSW visible
05 May 2.7 19:46:54 10° N 19:52:12 41° ENE 19:56:07 17° SE visible
05 May 4.5 21:32:26 10° WNW 21:35:48 16° W 21:37:58 13° SW visible
06 May 2.8 19:31:53 10° N 19:37:06 38° ENE 19:42:15 10° SE visible
06 May 4.5 21:17:08 10° WNW 21:20:44 18° W 21:24:07 11° SW visible
07 May 2.9 19:16:51 10° N 19:22:00 36° ENE 19:27:07 10° SE visible
07 May 4.5 21:01:51 10° WNW 21:05:40 19° W 21:09:29 10° SW visible
